| time (UTC) | temp F | wind direction | speed MPH | gust MPH | rain 1hr in | rain 24hr in | rain mn in | humidity % | barometer mb |
| 20260509172004 | 69 | 8 | 4.0 | 12.0 | 0.00 | 0.00 | 0.00 | 49 | 1014.9 |
| 20260509171504 | 69 | 0 | 5.0 | 12.0 | 0.00 | 0.00 | 0.00 | 47 | 1015.0 |
| 20260509171004 | 69 | 19 | 5.0 | 12.0 | 0.00 | 0.00 | 0.00 | 47 | 1015.0 |
| 20260509170504 | 70 | 22 | 5.0 | 12.0 | 0.00 | 0.00 | 0.00 | 47 | 1015.0 |
| 20260509170004 | 70 | 356 | 6.0 | 12.0 | 0.00 | 0.00 | 0.00 | 47 | 1015.1 |
| 20260509165504 | 70 | 17 | 3.0 | 12.0 | 0.00 | 0.00 | 0.00 | 47 | 1015.1 |
| 20260509164004 | 71 | 355 | 5.0 | 12.0 | 0.00 | 0.00 | 0.00 | 48 | 1015.1 |
| 20260509163504 | 70 | 346 | 4.0 | 8.0 | 0.00 | 0.00 | 0.00 | 47 | 1015.1 |
| 20260509162504 | 70 | 11 | 4.0 | 9.0 | 0.00 | 0.00 | 0.00 | 47 | 1015.1 |
| 20260509161503 | 71 | 10 | 3.0 | 12.0 | 0.00 | 0.00 | 0.00 | 45 | 1015.2 |
| 20260509161004 | 71 | 0 | 6.0 | 12.0 | 0.00 | 0.00 | 0.00 | 43 | 1015.3 |
| 20260509160504 | 71 | 354 | 5.0 | 9.0 | 0.00 | 0.00 | 0.00 | 45 | 1015.2 |
| 20260509160004 | 71 | 17 | 5.0 | 9.0 | 0.00 | 0.00 | 0.00 | 47 | 1015.2 |
| 20260509155504 | 70 | 14 | 3.0 | 10.0 | 0.00 | 0.00 | 0.00 | 47 | 1015.2 |
| 20260509155005 | 70 | 346 | 3.0 | 10.0 | 0.00 | 0.00 | 0.00 | 46 | 1015.2 |
| 20260509154004 | 71 | 47 | 3.0 | 10.0 | 0.00 | 0.00 | 0.00 | 43 | 1015.3 |
| 20260509153504 | 71 | 22 | 5.0 | 10.0 | 0.00 | 0.00 | 0.00 | 42 | 1015.3 |
| 20260509150504 | 72 | 1 | 6.0 | 10.0 | 0.00 | 0.00 | 0.00 | 45 | 1015.6 |
| 20260509145504 | 71 | 359 | 5.0 | 10.0 | 0.00 | 0.00 | 0.00 | 47 | 1015.7 |
| 20260509144504 | 71 | 349 | 5.0 | 9.0 | 0.00 | 0.00 | 0.00 | 45 | 1015.8 |
| 20260509144004 | 71 | 56 | 3.0 | 8.0 | 0.00 | 0.00 | 0.00 | 44 | 1015.8 |
| 20260509142004 | 72 | 5 | 5.0 | 12.0 | 0.00 | 0.00 | 0.00 | 41 | 1015.9 |
| 20260509140504 | 71 | 88 | 5.0 | 13.0 | 0.00 | 0.00 | 0.00 | 43 | 1015.9 |
| 20260509135005 | 70 | 18 | 5.0 | 12.0 | 0.00 | 0.00 | 0.00 | 45 | 1016.0 |
| 20260509133504 | 70 | 8 | 5.0 | 12.0 | 0.00 | 0.00 | 0.00 | 46 | 1015.9 |
| 20260509133004 | 71 | 37 | 6.0 | 12.0 | 0.00 | 0.00 | 0.00 | 45 | 1015.9 |
| 20260509132504 | 71 | 6 | 3.0 | 10.0 | 0.00 | 0.00 | 0.00 | 46 | 1015.9 |
| 20260509131504 | 71 | 0 | 6.0 | 12.0 | 0.00 | 0.00 | 0.00 | 45 | 1016.0 |
| 20260509130504 | 71 | 38 | 3.0 | 15.0 | 0.00 | 0.00 | 0.00 | 47 | 1016.1 |
| 20260509125504 | 71 | 6 | 3.0 | 12.0 | 0.00 | 0.00 | 0.00 | 49 | 1016.2 |
| 20260509124504 | 70 | 4 | 3.0 | 9.0 | 0.00 | 0.00 | 0.00 | 49 | 1016.2 |
| 20260509121004 | 68 | 80 | 4.0 | 10.0 | 0.00 | 0.00 | 0.00 | 51 | 1016.5 |
| 20260509120504 | 68 | 38 | 3.0 | 10.0 | 0.00 | 0.00 | 0.00 | 50 | 1016.5 |
| 20260509120005 | 68 | 44 | 4.0 | 12.0 | 0.00 | 0.00 | 0.00 | 49 | 1016.6 |
| 20260509115005 | 68 | 90 | 5.0 | 12.0 | 0.00 | 0.00 | 0.00 | 50 | 1016.6 |
| 20260509114504 | 68 | 13 | 4.0 | 10.0 | 0.00 | 0.00 | 0.00 | 53 | 1016.6 |
| 20260509113504 | 68 | 83 | 5.0 | 13.0 | 0.00 | 0.00 | 0.00 | 53 | 1016.7 |
| 20260509111504 | 68 | 94 | 4.0 | 10.0 | 0.00 | 0.00 | 0.00 | 54 | 1016.9 |
| 20260509110504 | 68 | 13 | 3.0 | 10.0 | 0.00 | 0.00 | 0.00 | 54 | 1016.9 |
| 20260509110005 | 68 | 23 | 5.0 | 9.0 | 0.00 | 0.00 | 0.00 | 55 | 1016.9 |
| 20260509105504 | 68 | 14 | 2.0 | 9.0 | 0.00 | 0.00 | 0.00 | 55 | 1017.1 |
| 20260509104504 | 68 | 24 | 3.0 | 7.0 | 0.00 | 0.00 | 0.00 | 56 | 1017.1 |
| 20260509103504 | 68 | 349 | 4.0 | 6.0 | 0.00 | 0.00 | 0.00 | 58 | 1017.2 |
| 20260509103004 | 67 | 22 | 3.0 | 9.0 | 0.00 | 0.00 | 0.00 | 58 | 1017.3 |
| 20260509102504 | 67 | 81 | 2.0 | 9.0 | 0.00 | 0.00 | 0.00 | 58 | 1017.3 |
| 20260509101505 | 67 | 131 | 3.0 | 6.0 | 0.00 | 0.00 | 0.00 | 59 | 1017.2 |
| 20260509101004 | 67 | 46 | 2.0 | 5.0 | 0.00 | 0.00 | 0.00 | 60 | 1017.3 |
| 20260509095504 | 66 | 60 | 1.0 | 7.0 | 0.00 | 0.00 | 0.00 | 62 | 1017.4 |
| 20260509095004 | 66 | 43 | 3.0 | 7.0 | 0.00 | 0.00 | 0.00 | 61 | 1017.5 |
| 20260509094504 | 65 | 318 | 3.0 | 6.0 | 0.00 | 0.00 | 0.00 | 63 | 1017.4 |
| 20260509094005 | 65 | 345 | 3.0 | 5.0 | 0.00 | 0.00 | 0.00 | 64 | 1017.4 |
| 20260509093504 | 64 | 19 | 2.0 | 7.0 | 0.00 | 0.00 | 0.00 | 63 | 1017.4 |
| 20260509092004 | 63 | 99 | 2.0 | 8.0 | 0.00 | 0.00 | 0.00 | 63 | 1017.4 |
| 20260509091004 | 62 | 68 | 2.0 | 7.0 | 0.00 | 0.00 | 0.00 | 64 | 1017.4 |
| 20260509090504 | 62 | 94 | 2.0 | 6.0 | 0.00 | 0.00 | 0.00 | 66 | 1017.5 |
| 20260509090010 | 61 | 99 | 3.0 | 6.0 | 0.00 | 0.00 | 0.00 | 65 | 1017.5 |
| 20260509085504 | 61 | 128 | 3.0 | 6.0 | 0.00 | 0.00 | 0.00 | 66 | 1017.6 |
| 20260509085004 | 61 | 106 | 3.0 | 5.0 | 0.00 | 0.00 | 0.00 | 66 | 1017.6 |
| 20260509084504 | 60 | 114 | 1.0 | 7.0 | 0.00 | 0.00 | 0.00 | 68 | 1017.6 |
| 20260509084004 | 60 | 102 | 2.0 | 7.0 | 0.00 | 0.00 | 0.00 | 68 | 1017.5 |
| 20260509082504 | 59 | 80 | 2.0 | 5.0 | 0.00 | 0.00 | 0.00 | 69 | 1017.6 |
| 20260509082004 | 59 | 57 | 2.0 | 5.0 | 0.00 | 0.00 | 0.00 | 69 | 1017.6 |
| 20260509080004 | 58 | 43 | 2.0 | 6.0 | 0.00 | 0.00 | 0.00 | 70 | 1017.6 |
| 20260509075004 | 57 | 44 | 2.0 | 5.0 | 0.00 | 0.00 | 0.00 | 72 | 1017.7 |
| 20260509074504 | 57 | 84 | 3.0 | 5.0 | 0.00 | 0.00 | 0.00 | 72 | 1017.6 |
| 20260509073504 | 56 | 28 | 2.0 | 5.0 | 0.00 | 0.00 | 0.00 | 72 | 1017.6 |
| 20260509073005 | 56 | 19 | 2.0 | 5.0 | 0.00 | 0.00 | 0.00 | 73 | 1017.6 |
| 20260509072504 | 56 | 355 | 3.0 | 5.0 | 0.00 | 0.00 | 0.00 | 73 | 1017.6 |
| 20260509072005 | 56 | 1 | 2.0 | 3.0 | 0.00 | 0.00 | 0.00 | 74 | 1017.5 |
| 20260509071504 | 55 | 1 | 2.0 | 3.0 | 0.00 | 0.00 | 0.00 | 74 | 1017.5 |
| 20260509071004 | 55 | 0 | 2.0 | 5.0 | 0.00 | 0.00 | 0.00 | 74 | 1017.5 |
| 20260509070005 | 54 | 49 | 2.0 | 6.0 | 0.00 | 0.00 | 0.00 | 74 | 1017.5 |
| 20260509064004 | 53 | 19 | 3.0 | 5.0 | 0.00 | 0.00 | 0.00 | 75 | 1017.4 |
| 20260509063504 | 53 | 13 | 2.0 | 7.0 | 0.00 | 0.00 | 0.00 | 76 | 1017.4 |
| 20260509063004 | 52 | 40 | 1.0 | 7.0 | 0.00 | 0.00 | 0.00 | 76 | 1017.4 |
| 20260509061505 | 51 | 43 | 2.0 | 7.0 | 0.00 | 0.00 | 0.00 | 77 | 1017.3 |
| 20260509061004 | 51 | 31 | 2.0 | 5.0 | 0.00 | 0.00 | 0.00 | 78 | 1017.3 |
| 20260509060505 | 51 | 36 | 2.0 | 3.0 | 0.00 | 0.00 | 0.00 | 78 | 1017.2 |
| 20260509060005 | 51 | 28 | 1.0 | 3.0 | 0.00 | 0.00 | 0.00 | 78 | 1017.2 |
| 20260509055004 | 50 | 63 | 0.0 | 1.0 | 0.00 | 0.00 | 0.00 | 78 | 1017.2 |
| 20260509054504 | 50 | 63 | 0.0 | 1.0 | 0.00 | 0.00 | 0.00 | 78 | 1017.2 |
| 20260509052004 | 51 | 149 | 0.0 | 2.0 | 0.00 | 0.00 | 0.00 | 75 | 1017.0 |
| 20260509050004 | 51 | 12 | 0.0 | 0.0 | 0.00 | 0.00 | 0.00 | 75 | 1016.7 |
| 20260509044504 | 51 | 30 | 1.0 | 2.0 | 0.00 | 0.00 | 0.00 | 74 | 1016.7 |
| 20260509044004 | 52 | 30 | 0.0 | 3.0 | 0.00 | 0.00 | 0.00 | 74 | 1016.7 |
| 20260509042004 | 52 | 34 | 2.0 | 3.0 | 0.00 | 0.00 | 0.00 | 73 | 1016.8 |
| 20260509040504 | 52 | 67 | 1.0 | 3.0 | 0.00 | 0.00 | 0.00 | 73 | 1016.9 |
| 20260509035504 | 52 | 12 | 2.0 | 3.0 | 0.00 | 0.00 | 0.00 | 74 | 1016.7 |
| 20260509035004 | 52 | 38 | 1.0 | 2.0 | 0.00 | 0.00 | 0.00 | 74 | 1016.8 |
| 20260509034004 | 52 | 5 | 0.0 | 2.0 | 0.00 | 0.00 | 0.00 | 73 | 1016.9 |
| 20260509033504 | 53 | 5 | 1.0 | 2.0 | 0.00 | 0.00 | 0.00 | 73 | 1016.9 |
| 20260509033004 | 53 | 5 | 0.0 | 3.0 | 0.00 | 0.00 | 0.00 | 73 | 1016.9 |
| 20260509032504 | 53 | 5 | 1.0 | 3.0 | 0.00 | 0.01 | 0.00 | 73 | 1016.9 |
| 20260509031503 | 53 | 23 | 2.0 | 3.0 | 0.00 | 0.01 | 0.00 | 73 | 1016.9 |
| 20260509031005 | 53 | 350 | 0.0 | 3.0 | 0.00 | 0.01 | 0.00 | 72 | 1017.0 |
| 20260509025504 | 53 | 63 | 0.0 | 2.0 | 0.00 | 0.01 | 0.00 | 72 | 1016.9 |
| 20260509023504 | 54 | 35 | 2.0 | 3.0 | 0.00 | 0.01 | 0.00 | 72 | 1016.9 |
| 20260509023004 | 54 | 42 | 2.0 | 3.0 | 0.00 | 0.01 | 0.00 | 72 | 1017.0 |
| 20260509021003 | 54 | 21 | 2.0 | 6.0 | 0.00 | 0.01 | 0.00 | 73 | 1017.0 |
| 20260509013504 | 53 | 54 | 0.0 | 2.0 | 0.00 | 0.01 | 0.00 | 74 | 1017.2 |
| 20260509012504 | 53 | 43 | 0.0 | 3.0 | 0.00 | 0.01 | 0.00 | 73 | 1017.2 |
| 20260509005503 | 53 | 328 | 2.0 | 3.0 | 0.00 | 0.01 | 0.00 | 72 | 1017.1 |
| 20260509005004 | 53 | 351 | 2.0 | 3.0 | 0.00 | 0.01 | 0.00 | 72 | 1017.0 |
| 20260509002004 | 53 | 51 | 0.0 | 1.0 | 0.00 | 0.01 | 0.00 | 71 | 1017.2 |
| 20260509001504 | 54 | 51 | 0.0 | 0.0 | 0.00 | 0.01 | 0.00 | 70 | 1017.2 |
| 20260509000504 | 54 | 51 | 0.0 | 2.0 | 0.00 | 0.01 | 0.00 | 69 | 1017.2 |
| 20260508234004 | 55 | 43 | 1.0 | 3.0 | 0.00 | 0.01 | 0.00 | 69 | 1017.2 |
| 20260508233504 | 55 | 55 | 2.0 | 3.0 | 0.00 | 0.01 | 0.00 | 69 | 1017.2 |
| 20260508232504 | 55 | 46 | 1.0 | 3.0 | 0.00 | 0.01 | 0.00 | 69 | 1017.2 |
| 20260508231504 | 55 | 35 | 2.0 | 3.0 | 0.00 | 0.01 | 0.00 | 69 | 1017.2 |
| 20260508231004 | 55 | 25 | 1.0 | 3.0 | 0.00 | 0.01 | 0.00 | 69 | 1017.2 |
| 20260508230004 | 55 | 26 | 1.0 | 3.0 | 0.00 | 0.01 | 0.00 | 69 | 1017.2 |
| 20260508225004 | 55 | 51 | 1.0 | 3.0 | 0.00 | 0.01 | 0.01 | 69 | 1017.3 |
| 20260508224004 | 55 | 36 | 1.0 | 2.0 | 0.00 | 0.01 | 0.01 | 70 | 1017.2 |
| 20260508223004 | 55 | 37 | 1.0 | 3.0 | 0.00 | 0.01 | 0.01 | 70 | 1017.2 |
| 20260508221504 | 55 | 355 | 1.0 | 3.0 | 0.00 | 0.01 | 0.01 | 70 | 1017.2 |
| 20260508220504 | 55 | 30 | 0.0 | 2.0 | 0.00 | 0.01 | 0.01 | 70 | 1017.2 |
| 20260508220004 | 55 | 30 | 1.0 | 2.0 | 0.00 | 0.01 | 0.01 | 69 | 1017.1 |
| 20260508215004 | 56 | 47 | 1.0 | 2.0 | 0.00 | 0.01 | 0.01 | 69 | 1017.2 |
| 20260508214005 | 56 | 47 | 1.0 | 3.0 | 0.00 | 0.01 | 0.01 | 68 | 1017.2 |
| 20260508212504 | 56 | 9 | 1.0 | 2.0 | 0.00 | 0.01 | 0.01 | 68 | 1017.1 |
| 20260508212004 | 56 | 33 | 1.0 | 3.0 | 0.00 | 0.01 | 0.01 | 67 | 1017.1 |
| 20260508211004 | 56 | 43 | 1.0 | 2.0 | 0.00 | 0.01 | 0.01 | 67 | 1017.2 |
| 20260508210504 | 57 | 48 | 1.0 | 2.0 | 0.00 | 0.01 | 0.01 | 66 | 1017.2 |
| 20260508205005 | 57 | 28 | 1.0 | 3.0 | 0.00 | 0.01 | 0.01 | 65 | 1017.1 |
| 20260508204504 | 57 | 22 | 1.0 | 3.0 | 0.00 | 0.01 | 0.01 | 66 | 1017.1 |
| 20260508201504 | 58 | 99 | 1.0 | 3.0 | 0.00 | 0.01 | 0.01 | 62 | 1016.8 |
| 20260508200504 | 59 | 130 | 2.0 | 5.0 | 0.00 | 0.01 | 0.01 | 62 | 1016.7 |
| 20260508195504 | 59 | 123 | 1.0 | 5.0 | 0.00 | 0.01 | 0.01 | 61 | 1016.6 |
| 20260508195005 | 59 | 91 | 1.0 | 5.0 | 0.00 | 0.01 | 0.01 | 61 | 1016.6 |
| 20260508194504 | 60 | 105 | 1.0 | 5.0 | 0.00 | 0.01 | 0.01 | 61 | 1016.5 |
| 20260508194004 | 60 | 120 | 2.0 | 3.0 | 0.00 | 0.01 | 0.01 | 61 | 1016.4 |
| 20260508193504 | 60 | 134 | 2.0 | 3.0 | 0.00 | 0.01 | 0.01 | 60 | 1016.4 |
| 20260508193004 | 60 | 145 | 1.0 | 3.0 | 0.00 | 0.01 | 0.01 | 61 | 1016.3 |
| 20260508191003 | 61 | 99 | 3.0 | 8.0 | 0.00 | 0.01 | 0.01 | 58 | 1016.2 |
| 20260508190504 | 61 | 120 | 3.0 | 8.0 | 0.00 | 0.01 | 0.01 | 59 | 1016.2 |
| 20260508185504 | 62 | 120 | 3.0 | 8.0 | 0.00 | 0.01 | 0.01 | 59 | 1016.1 |
| 20260508184504 | 62 | 150 | 4.0 | 8.0 | 0.00 | 0.01 | 0.01 | 59 | 1016.1 |
| 20260508182504 | 63 | 143 | 3.0 | 12.0 | 0.00 | 0.01 | 0.01 | 59 | 1016.0 |
| 20260508182004 | 63 | 120 | 6.0 | 12.0 | 0.00 | 0.01 | 0.01 | 58 | 1015.9 |
| 20260508181504 | 63 | 114 | 5.0 | 12.0 | 0.00 | 0.01 | 0.01 | 59 | 1015.7 |
| 20260508181004 | 63 | 122 | 5.0 | 12.0 | 0.00 | 0.01 | 0.01 | 60 | 1015.8 |
| 20260508180004 | 64 | 121 | 5.0 | 12.0 | 0.00 | 0.01 | 0.01 | 59 | 1015.7 |
| 20260508175504 | 64 | 121 | 4.0 | 10.0 | 0.00 | 0.01 | 0.01 | 59 | 1015.6 |
| 20260508174504 | 64 | 130 | 6.0 | 13.0 | 0.00 | 0.01 | 0.01 | 59 | 1015.4 |
| 20260508173504 | 65 | 120 | 5.0 | 12.0 | 0.00 | 0.01 | 0.01 | 58 | 1015.3 |